Location: Freistadt
(48.5112°N, 14.5013°E)
Time: 09:26:03
(UTC+02:00)

NOAA 16 DEB - Pass Details

Date: 29 May 2024
Orbit: 738 x 810 km, 99.0° (Epoch: 16 June)

Event Time Altitude Azimuth Distance (km) Brightness Sun altitude
Rises 02:09:14 0° 97° (E) 3,323 ? -18.1°
Reaches altitude 10° 02:13:48 10° 60° (ENE) 2,386 ? -17.9°
Maximum altitude 02:14:49 11° 49° (NE) 2,344 ? -17.8°
Drops below altitude 10° 02:15:51 10° 38° (NE) 2,381 ? -17.8°
Sets 02:20:22 0° 1° (N) 3,298 ? -17.5°
